Terug naar catalogus

STARLINK-1017

ActiefCommunicatieVLEO
NORAD 44723·PAYLOAD·🇺🇸 United States

Gelanceerd Nov 11, 2019 vanaf Cape Canaveral Space Force Station

Loading…

Volgende Passages (komende 24 uur)

TLE

VersSource: CelesTrak SupGP

Epoch: Sep 14, 2026, 20:52 UTC

1 44723C 19074L   26257.86993056  .00025720  00000+0  65433-3 0  2575
2 44723  53.0452   8.3876 0003418 337.3441 236.2344 15.39005411    18

Volg STARLINK-1017 in realtime met AllMySat

Download on the App Store